Location: Newark
(43.6583°N, 1.6617°E)
Time: 15:56:07
(UTC+00:00)

Vanguard 1 Rocket - Pass Details

Date: 22 August 2019
Orbit: 650 x 4226 km, 34.3° (Epoch: 23 October)

Event Time Altitude Azimuth Distance (km) Brightness Sun altitude
Exits shadow 05:12:40 - 260° (W) 3,284 9.6 0.4°
Rises 05:12:46 0° 259° (W) 3,249 9.5 0.5°
Reaches altitude 10° 05:14:56 10° 250° (WSW) 2,511 9.0 0.8°
Maximum altitude 05:20:16 36° 184° (S) 1,766 8.8 1.8°
Drops below altitude 10° 05:29:12 10° 122° (ESE) 4,241 11.6 3.3°
Sets 05:34:07 0° 116° (ESE) 5,861 12.5 4.2°
